Regional Weather Roundup
Issued by NWS

Home | Current Version | Previous Version | Text Only | Print | Product List | Glossary Off
Versions: 1 2 3 4 5 6 7 8 9 10 11 12 13 14 15 16 17 18 19 20 21 22 23 24 25 26 27 28 29 30 31 32 33 34 35 36 37 38 39 40 41 42 43 44 45 46 47 48 49 50

000
ASUS43 KFSD 220510
RWRSD

WEATHER ROUNDUP FOR SOUTH DAKOTA
NATIONAL WEATHER SERVICE SIOUX FALLS SD
1200 AM CDT SUN APR 22 2018

NOTE: "FAIR" INDICATES FEW OR NO CLOUDS BELOW 12,000 FEET WITH NO
SIGNIFICANT WEATHER AND/OR OBSTRUCTIONS TO VISIBILITY.


SDZ001>005-009-010-012>017-220600-
NORTHWEST AND NORTH CENTRAL SOUTH DAKOTA

CITY           SKY/WX    TMP DP  RH WIND       PRES   REMARKS
BUFFALO          N/A     42  36  79 SE15      30.02F
FAITH            N/A     40  38  93 S20       30.14F
MOBRIDGE       PTCLDY    40  34  79 SE9       30.19F
$$

SDZ012>016-024>037-041>051-057-063-072>074-220600-
SOUTHWEST AND SOUTH CENTRAL SOUTH DAKOTA

CITY           SKY/WX    TMP DP  RH WIND       PRES   REMARKS
RAPID CTY ARPT CLEAR     39  34  82 S15       30.14F
PIERRE         CLEAR     36  35  96 SE5       30.23S
CUSTER         FOG       34  31  88 SW5       30.13F VSB 3/4 WCI  30
ELLSWORTH AFB  CLEAR    N/A N/A N/A S20G25    30.12F
PHILIP         CLEAR     37  35  92 E5        30.20F
PINE RIDGE     CLEAR     40  36  86 S9        30.18F
SPEARFISH      FAIR      46  34  61 SE3       30.09S
WINNER         CLOUDY    38  33  82 SE6       30.25F
$$

SDZ004>011-016>023-039-040-220600-
NORTHEAST SOUTH DAKOTA

CITY           SKY/WX    TMP DP  RH WIND       PRES   REMARKS
ABERDEEN       CLEAR     35  32  88 S6        30.28F
WATERTOWN      CLEAR     38  30  73 SE6       30.29S
BROOKINGS      CLOUDY    37  31  78 E6        30.30F
SISSETON         N/A     40  35  83 S10       30.28F
$$

SDZ017-020-022-023-036>040-048>070-220600-
SOUTHEAST SOUTH DAKOTA

CITY           SKY/WX    TMP DP  RH WIND       PRES   REMARKS
SIOUX FALLS    CLOUDY    41  33  73 E5        30.29F
HURON          CLEAR     39  33  79 SE9       30.28S
CHAMBERLAIN    CLOUDY    41  41  98 CALM      30.26F
MITCHELL       CLOUDY    39  35  86 E6        30.29F
YANKTON        CLOUDY    45  38  76 NE6       30.28S
$$

ABBREVIATIONS USED IN REMARKS
   TC - TEMPERATURE IN CELSIUS
  WCI - WIND CHILL INDEX
   HX - HEAT INDEX
  VSB - VISIBILITY





USA.gov is the U.S. government's official web portal to all federal, state and local government web resources and services.